Location: Red Rock Canyon
(36.1333°N, 115.4333°W)
Time: 12:54:29
(UTC-07:00)

ISS - Visible Passes

Search period start: 25 July 2014 00:00
Search period end: 04 August 2014 00:00
Orbit: 411 x 420 km, 51.6° (Epoch: 25 July)

Date Brightness Start Highest point End Pass type
(mag) Time Alt. Az. Time Alt. Az. Time Alt. Az.
25 Jul 0.0 02:20:05 13° N 02:20:05 13° N 02:20:49 10° NNE visible
30 Jul -0.2 04:42:56 10° NNW 04:45:14 17° NNE 04:47:31 10° ENE visible
31 Jul 0.1 03:54:51 10° N 03:56:16 12° NNE 03:57:41 10° NE visible
01 Aug -1.6 04:41:36 10° NW 04:44:46 37° NE 04:47:55 10° ESE visible
01 Aug -2.4 21:21:54 10° SSW 21:24:04 34° S 21:24:04 34° S visible
02 Aug -0.7 03:53:10 10° NNW 03:55:57 23° NNE 03:58:43 10° E visible
02 Aug -2.3 20:33:42 10° S 20:36:33 26° SE 20:39:24 10° ENE visible
02 Aug -1.1 22:10:18 10° W 22:13:13 27° NNW 22:15:05 17° NNE visible
03 Aug -0.1 03:04:54 10° NNW 03:07:04 16° NNE 03:09:14 10° ENE visible
03 Aug -3.4 04:40:45 10° NW 04:44:06 69° SW 04:47:26 10° SE visible
03 Aug -2.2 21:21:13 10° WSW 21:24:26 46° NW 21:27:41 10° NE visible
